TimeCST,TemperatureF,Dew PointF,Humidity,Sea Level PressureIn,VisibilityMPH,Wind Direction,Wind SpeedMPH,Gust SpeedMPH,PrecipitationIn,Events,Conditions,WindDirDegrees,DateUTC
12:11 AM,24.8,24.8,100,30.30,3.0,ESE,5.8,-,N/A,,Overcast,120,2011-11-21 06:11:00
12:19 AM,24.8,23.0,93,30.30,1.8,SSE,6.9,-,N/A,,Overcast,150,2011-11-21 06:19:00
12:29 AM,24.8,24.8,100,30.30,0.5,SE,4.6,-,N/A,Fog,Light Freezing Fog,140,2011-11-21 06:29:00
12:53 AM,24.1,24.1,100,30.35,0.5,SE,3.5,-,N/A,Fog,Light Freezing Fog,130,2011-11-21 06:53:00
1:15 AM,24.8,24.8,100,30.30,0.2,ESE,3.5,-,N/A,Fog,Light Freezing Fog,120,2011-11-21 07:15:00
1:40 AM,24.8,24.8,100,30.29,0.8,East,3.5,-,N/A,,Mist,100,2011-11-21 07:40:00
1:53 AM,24.1,24.1,100,30.33,0.5,Calm,Calm,-,N/A,Fog,Light Freezing Fog,0,2011-11-21 07:53:00
2:23 AM,24.8,21.2,86,30.29,0.2,NNE,3.5,-,N/A,Fog,Light Freezing Fog,30,2011-11-21 08:23:00
2:53 AM,24.1,23.0,96,30.32,0.2,NE,4.6,-,N/A,Fog,Light Freezing Fog,40,2011-11-21 08:53:00
3:53 AM,23.0,21.9,96,30.33,0.2,North,-9999.0,-,N/A,Fog,Light Freezing Fog,0,2011-11-21 09:53:00
4:00 AM,23.0,21.2,93,30.28,-9999.0,East,3.5,-,N/A,,Unknown,80,2011-11-21 10:00:00
4:09 AM,23.0,21.2,93,30.28,0.2,Calm,Calm,-,N/A,Fog,Light Freezing Fog,0,2011-11-21 10:09:00
4:30 AM,23.0,21.2,93,30.29,0.2,Calm,Calm,-,N/A,Fog,Light Freezing Fog,0,2011-11-21 10:30:00
4:53 AM,21.9,21.0,96,30.32,0.2,ENE,4.6,-,N/A,Fog,Light Freezing Fog,60,2011-11-21 10:53:00
5:01 AM,21.2,21.2,100,30.28,0.5,ENE,3.5,-,N/A,Fog,Light Freezing Fog,70,2011-11-21 11:01:00
5:22 AM,21.2,19.4,93,30.29,0.2,North,3.5,-,N/A,Fog,Light Freezing Fog,10,2011-11-21 11:22:00
5:32 AM,19.4,17.6,93,30.30,1.2,NNE,4.6,-,N/A,,Mostly Cloudy,30,2011-11-21 11:32:00
5:35 AM,19.4,17.6,93,30.30,3.0,NNE,5.8,-,N/A,,Mostly Cloudy,20,2011-11-21 11:35:00
5:42 AM,19.4,17.6,93,30.30,5.0,North,5.8,-,N/A,,Scattered Clouds,360,2011-11-21 11:42:00
5:53 AM,19.9,18.0,92,30.35,5.0,NNE,4.6,-,N/A,,Scattered Clouds,30,2011-11-21 11:53:00
6:28 AM,19.4,17.6,93,30.31,5.0,Calm,Calm,-,N/A,,Mostly Cloudy,0,2011-11-21 12:28:00
6:53 AM,21.0,19.0,92,30.36,6.0,NE,3.5,-,N/A,,Overcast,40,2011-11-21 12:53:00
7:53 AM,23.0,21.0,92,30.34,5.0,ESE,4.6,-,N/A,,Overcast,110,2011-11-21 13:53:00
8:14 AM,24.8,23.0,93,30.29,4.0,Calm,Calm,-,N/A,,Scattered Clouds,0,2011-11-21 14:14:00
8:53 AM,26.1,24.1,92,30.34,4.0,Calm,Calm,-,N/A,,Mostly Cloudy,0,2011-11-21 14:53:00
9:05 AM,26.6,24.8,93,30.29,4.0,East,3.5,-,N/A,,Overcast,80,2011-11-21 15:05:00
9:19 AM,28.4,26.6,93,30.30,4.0,Calm,Calm,-,N/A,,Overcast,0,2011-11-21 15:19:00
9:53 AM,28.9,28.0,96,30.34,5.0,ESE,4.6,-,N/A,,Overcast,120,2011-11-21 15:53:00
10:53 AM,30.9,30.0,96,30.33,5.0,Calm,Calm,-,N/A,,Overcast,0,2011-11-21 16:53:00
11:06 AM,32.0,30.2,93,30.29,5.0,SE,4.6,-,N/A,,Overcast,130,2011-11-21 17:06:00
11:20 AM,32.0,30.2,93,30.29,5.0,SE,4.6,-,N/A,,Overcast,140,2011-11-21 17:20:00
11:53 AM,33.1,30.9,92,30.30,6.0,SSE,6.9,-,N/A,,Overcast,150,2011-11-21 17:53:00
12:44 PM,35.6,32.0,87,30.24,6.0,SE,6.9,-,N/A,,Overcast,140,2011-11-21 18:44:00
12:53 PM,36.0,32.0,86,30.27,6.0,SSE,9.2,-,N/A,,Overcast,150,2011-11-21 18:53:00
1:53 PM,37.0,32.0,82,30.24,7.0,SE,4.6,-,N/A,,Overcast,140,2011-11-21 19:53:00
2:53 PM,37.0,33.1,86,30.22,7.0,East,4.6,-,N/A,,Overcast,100,2011-11-21 20:53:00
3:53 PM,37.0,33.1,86,30.23,7.0,East,3.5,-,N/A,,Overcast,90,2011-11-21 21:53:00
4:53 PM,37.0,32.0,82,30.24,8.0,East,3.5,-,N/A,,Overcast,90,2011-11-21 22:53:00
5:53 PM,36.0,32.0,86,30.24,8.0,East,9.2,-,N/A,,Overcast,90,2011-11-21 23:53:00
6:16 PM,35.6,32.0,87,30.20,7.0,East,8.1,-,N/A,,Overcast,100,2011-11-22 00:16:00
6:53 PM,36.0,32.0,86,30.23,7.0,ESE,10.4,-,N/A,,Overcast,110,2011-11-22 00:53:00
7:53 PM,35.1,30.9,85,30.22,7.0,East,8.1,-,N/A,,Overcast,100,2011-11-22 01:53:00
8:53 PM,34.0,30.0,85,30.19,7.0,East,8.1,-,N/A,,Mostly Cloudy,80,2011-11-22 02:53:00
9:53 PM,35.1,30.9,85,30.20,8.0,East,9.2,-,N/A,,Overcast,100,2011-11-22 03:53:00
10:53 PM,34.0,30.9,89,30.22,8.0,East,8.1,-,N/A,,Overcast,100,2011-11-22 04:53:00
11:53 PM,35.1,30.9,85,30.21,8.0,ESE,8.1,-,N/A,,Overcast,110,2011-11-22 05:53:00